AVA9206 SKRG-SKSM

Flight info

Callsign AVA9206
Flight time 0h 51m
Altitude 33000
Route BIVIG1B BIVIG UW3 MGN DCT DARNI DARNI1C
Aircraft A320/M-SDE3FGHIRWY/LB1

Departure

Time 2026-05-05 00:15
Airport Jose Maria Córdova International Airport (SKRG)

Arrival

Time 2026-05-05 01:06
Airport Simón Bolívar International Airport (SKSM)
Time Latitude Longitude Altitude Speed Heading
2026-05-04 23:45 6.17038 -75.42712 7016 ft 0 kts 310°
2026-05-05 00:04 6.17029 -75.42699 7020 ft 3 kts 304°
2026-05-05 00:04 6.17016 -75.42683 7016 ft 3 kts 316°
2026-05-05 00:05 6.17000 -75.42672 7016 ft 3 kts
2026-05-05 00:05 6.16985 -75.42681 7018 ft 3 kts 57°
2026-05-05 00:05 6.16973 -75.42700 7016 ft 3 kts 60°
2026-05-05 00:05 6.16964 -75.42714 7016 ft 0 kts 46°
2026-05-05 00:06 6.16973 -75.42705 7017 ft 0 kts 47°
2026-05-05 00:08 6.16987 -75.42691 7016 ft 6 kts 43°
2026-05-05 00:09 6.17031 -75.42655 7018 ft 11 kts 45°
2026-05-05 00:09 6.17031 -75.42585 7019 ft 12 kts 133°
2026-05-05 00:09 6.16943 -75.42531 7018 ft 18 kts 150°
2026-05-05 00:09 6.16824 -75.42484 7017 ft 19 kts 176°
2026-05-05 00:10 6.16696 -75.42485 7011 ft 19 kts 181°
2026-05-05 00:10 6.16566 -75.42484 6999 ft 11 kts 179°
2026-05-05 00:10 6.16480 -75.42484 6998 ft 14 kts 181°
2026-05-05 00:10 6.16368 -75.42483 6993 ft 18 kts 181°
2026-05-05 00:11 6.16271 -75.42482 6989 ft 9 kts 179°
2026-05-05 00:11 6.16202 -75.42482 6982 ft 11 kts 180°
2026-05-05 00:11 6.16119 -75.42480 6985 ft 14 kts 179°
2026-05-05 00:11 6.16008 -75.42479 6983 ft 18 kts 180°
2026-05-05 00:12 6.15877 -75.42478 6980 ft 20 kts 180°
2026-05-05 00:12 6.15729 -75.42477 6980 ft 22 kts 180°
2026-05-05 00:12 6.15604 -75.42477 6980 ft 19 kts 179°
2026-05-05 00:12 6.15473 -75.42476 6979 ft 19 kts 180°
2026-05-05 00:13 6.15334 -75.42475 6976 ft 20 kts 180°
2026-05-05 00:13 6.15188 -75.42475 6978 ft 22 kts 180°
2026-05-05 00:13 6.15055 -75.42473 6977 ft 17 kts 178°
2026-05-05 00:13 6.14941 -75.42471 6977 ft 13 kts 179°
2026-05-05 00:14 6.14898 -75.42419 6975 ft 11 kts 89°
2026-05-05 00:14 6.14923 -75.42342 6977 ft 13 kts 46°
2026-05-05 00:14 6.14988 -75.42303 6976 ft 11 kts
2026-05-05 00:14 6.15123 -75.42304 6979 ft 43 kts
2026-05-05 00:15 6.15676 -75.42309 6980 ft 113 kts 359°
2026-05-05 00:15 6.16663 -75.42314 7008 ft 167 kts 360°
2026-05-05 00:15 6.17869 -75.42312 7536 ft 175 kts
2026-05-05 00:15 6.19087 -75.42304 8289 ft 174 kts
2026-05-05 00:16 6.20298 -75.42307 8887 ft 174 kts 360°
2026-05-05 00:16 6.21467 -75.42047 9418 ft 175 kts 35°
2026-05-05 00:16 6.22195 -75.41090 9932 ft 177 kts 76°
2026-05-05 00:16 6.22226 -75.39857 10418 ft 182 kts 92°
2026-05-05 00:17 6.22429 -75.38534 10638 ft 204 kts 68°
2026-05-05 00:17 6.23037 -75.37152 10857 ft 227 kts 65°
2026-05-05 00:17 6.23753 -75.35651 11079 ft 248 kts 64°
2026-05-05 00:17 6.24546 -75.34034 11342 ft 270 kts 64°
2026-05-05 00:18 6.25415 -75.32271 11697 ft 292 kts 64°
2026-05-05 00:18 6.26332 -75.30410 12379 ft 300 kts 64°
2026-05-05 00:18 6.27263 -75.28513 13185 ft 305 kts 64°
2026-05-05 00:18 6.28320 -75.26657 13987 ft 309 kts 52°
2026-05-05 00:19 6.29931 -75.25209 14756 ft 315 kts 32°
2026-05-05 00:19 6.31988 -75.24425 15527 ft 321 kts 11°
2026-05-05 00:19 6.34239 -75.24316 16280 ft 326 kts
2026-05-05 00:19 6.36517 -75.24320 17014 ft 329 kts
2026-05-05 00:20 6.38864 -75.24326 17272 ft 348 kts
2026-05-05 00:20 6.41357 -75.24329 17471 ft 367 kts
2026-05-05 00:20 6.43941 -75.24333 17977 ft 375 kts
2026-05-05 00:20 6.46562 -75.24321 18585 ft 378 kts
2026-05-05 00:21 6.49200 -75.24193 19197 ft 381 kts
2026-05-05 00:21 6.51852 -75.23968 19805 ft 384 kts
2026-05-05 00:21 6.54522 -75.23697 20387 ft 388 kts
2026-05-05 00:21 6.57219 -75.23414 20971 ft 391 kts
2026-05-05 00:22 6.59935 -75.23140 21528 ft 394 kts
2026-05-05 00:22 6.62676 -75.22881 22081 ft 398 kts
2026-05-05 00:22 6.65444 -75.22636 22623 ft 401 kts
2026-05-05 00:22 6.68194 -75.22403 23147 ft 404 kts
2026-05-05 00:23 6.71006 -75.22169 23666 ft 407 kts
2026-05-05 00:23 6.73837 -75.21931 24166 ft 410 kts
2026-05-05 00:23 6.76685 -75.21688 24641 ft 412 kts
2026-05-05 00:23 6.79555 -75.21439 25074 ft 416 kts
2026-05-05 00:24 6.82441 -75.21188 25492 ft 419 kts
2026-05-05 00:24 6.85366 -75.20936 25900 ft 423 kts
2026-05-05 00:24 6.88308 -75.20684 26286 ft 426 kts
2026-05-05 00:24 6.91272 -75.20430 26671 ft 429 kts
2026-05-05 00:25 6.94257 -75.20172 27037 ft 432 kts
2026-05-05 00:25 6.97261 -75.19914 27392 ft 434 kts
2026-05-05 00:25 7.00287 -75.19653 27722 ft 438 kts
2026-05-05 00:25 7.03330 -75.19367 28065 ft 441 kts
2026-05-05 00:26 7.06381 -75.18984 28401 ft 443 kts
2026-05-05 00:26 7.09441 -75.18524 28729 ft 446 kts 10°
2026-05-05 00:26 7.12515 -75.18017 29039 ft 449 kts 10°
2026-05-05 00:26 7.15605 -75.17497 29361 ft 452 kts 10°
2026-05-05 00:27 7.18713 -75.16983 29669 ft 454 kts
2026-05-05 00:27 7.21847 -75.16481 29963 ft 457 kts
2026-05-05 00:27 7.24999 -75.15995 30252 ft 460 kts
2026-05-05 00:27 7.28167 -75.15516 30551 ft 462 kts
2026-05-05 00:28 7.31354 -75.15039 30826 ft 464 kts
2026-05-05 00:28 7.34553 -75.14563 31095 ft 466 kts
2026-05-05 00:28 7.37725 -75.14089 31354 ft 468 kts
2026-05-05 00:28 7.40950 -75.13604 31604 ft 470 kts
2026-05-05 00:29 7.44190 -75.13116 31857 ft 471 kts
2026-05-05 00:29 7.47429 -75.12626 32200 ft 470 kts
2026-05-05 00:29 7.50663 -75.12138 32558 ft 469 kts
2026-05-05 00:29 7.53892 -75.11652 32863 ft 469 kts
2026-05-05 00:30 7.57110 -75.11165 32941 ft 462 kts
2026-05-05 00:30 7.60236 -75.10694 32944 ft 449 kts
2026-05-05 00:30 7.63306 -75.10231 32943 ft 444 kts
2026-05-05 00:31 7.69388 -75.09305 32944 ft 441 kts
2026-05-05 00:31 7.75450 -75.08377 32934 ft 441 kts
2026-05-05 00:32 7.81514 -75.07432 32925 ft 441 kts
2026-05-05 00:32 7.87571 -75.06494 32871 ft 440 kts
2026-05-05 00:33 7.93613 -75.05566 32860 ft 439 kts
2026-05-05 00:33 7.99653 -75.04636 32852 ft 439 kts
2026-05-05 00:34 8.05688 -75.03711 32843 ft 439 kts
2026-05-05 00:34 8.11723 -75.02778 32845 ft 439 kts
2026-05-05 00:35 8.17759 -75.01848 32842 ft 439 kts
2026-05-05 00:35 8.23797 -75.00916 32835 ft 439 kts
2026-05-05 00:36 8.28815 -75.00143 32836 ft 439 kts
2026-05-05 00:36 8.34855 -74.99212 32840 ft 439 kts
2026-05-05 00:37 8.40895 -74.98280 32840 ft 439 kts
2026-05-05 00:37 8.46939 -74.97350 32846 ft 439 kts
2026-05-05 00:38 8.52975 -74.96416 32845 ft 439 kts
2026-05-05 00:38 8.59012 -74.95483 32846 ft 439 kts
2026-05-05 00:39 8.65045 -74.94549 32846 ft 438 kts
2026-05-05 00:39 8.71072 -74.93615 32842 ft 438 kts
2026-05-05 00:40 8.77099 -74.92684 32843 ft 438 kts
2026-05-05 00:40 8.83122 -74.91752 32844 ft 438 kts
2026-05-05 00:41 8.89144 -74.90818 32848 ft 438 kts
2026-05-05 00:41 8.95168 -74.89888 32844 ft 438 kts
2026-05-05 00:42 9.01194 -74.88955 32846 ft 438 kts
2026-05-05 00:42 9.07219 -74.88016 32849 ft 438 kts
2026-05-05 00:43 9.13246 -74.87080 32851 ft 438 kts
2026-05-05 00:43 9.19275 -74.86147 32853 ft 438 kts
2026-05-05 00:44 9.25260 -74.85224 32853 ft 438 kts
2026-05-05 00:44 9.31171 -74.83809 32854 ft 438 kts 19°
2026-05-05 00:45 9.36898 -74.81696 32852 ft 438 kts 20°
2026-05-05 00:45 9.42573 -74.79449 32851 ft 438 kts 21°
2026-05-05 00:46 9.48271 -74.77123 32871 ft 450 kts 21°
2026-05-05 00:46 9.54160 -74.74745 32836 ft 451 kts 21°
2026-05-05 00:46 9.57049 -74.73591 32431 ft 442 kts 21°
2026-05-05 00:47 9.59901 -74.72455 31803 ft 440 kts 21°
2026-05-05 00:47 9.62747 -74.71321 31221 ft 437 kts 21°
2026-05-05 00:47 9.65564 -74.70197 30690 ft 433 kts 21°
2026-05-05 00:47 9.68359 -74.69081 30151 ft 430 kts 21°
2026-05-05 00:48 9.71127 -74.67974 29618 ft 426 kts 21°
2026-05-05 00:48 9.73872 -74.66876 29093 ft 422 kts 21°
2026-05-05 00:48 9.76594 -74.65790 28586 ft 418 kts 21°
2026-05-05 00:48 9.79290 -74.64709 28019 ft 415 kts 21°
2026-05-05 00:49 9.82009 -74.63617 26855 ft 427 kts 21°
2026-05-05 00:49 9.84795 -74.62501 25898 ft 432 kts 21°
2026-05-05 00:49 9.87587 -74.61384 25190 ft 429 kts 21°
2026-05-05 00:49 9.90353 -74.60278 24542 ft 425 kts 21°
2026-05-05 00:50 9.93092 -74.59182 23912 ft 421 kts 21°
2026-05-05 00:50 9.95797 -74.58097 23293 ft 416 kts 21°
2026-05-05 00:50 9.98478 -74.57021 22693 ft 413 kts 21°
2026-05-05 00:50 10.01138 -74.55953 22100 ft 409 kts 22°
2026-05-05 00:51 10.03769 -74.54898 21533 ft 405 kts 22°
2026-05-05 00:51 10.06377 -74.53851 20982 ft 401 kts 22°
2026-05-05 00:51 10.08963 -74.52813 20425 ft 398 kts 22°
2026-05-05 00:51 10.11527 -74.51785 19867 ft 395 kts 22°
2026-05-05 00:52 10.14069 -74.50764 19317 ft 391 kts 22°
2026-05-05 00:52 10.16584 -74.49752 18765 ft 387 kts 22°
2026-05-05 00:52 10.19082 -74.48745 18215 ft 384 kts 23°
2026-05-05 00:52 10.21553 -74.47757 17641 ft 381 kts 23°
2026-05-05 00:53 10.24010 -74.46775 17095 ft 378 kts 22°
2026-05-05 00:53 10.26443 -74.45800 16523 ft 374 kts 22°
2026-05-05 00:53 10.28853 -74.44833 15943 ft 372 kts 23°
2026-05-05 00:53 10.31250 -74.43875 15414 ft 369 kts 22°
2026-05-05 00:54 10.33630 -74.42925 14856 ft 366 kts 22°
2026-05-05 00:54 10.35989 -74.41976 14298 ft 363 kts 22°
2026-05-05 00:54 10.38331 -74.41029 13751 ft 360 kts 23°
2026-05-05 00:54 10.40656 -74.40094 13201 ft 358 kts 22°
2026-05-05 00:55 10.42976 -74.39168 12668 ft 355 kts 23°
2026-05-05 00:55 10.45272 -74.38257 12105 ft 353 kts 22°
2026-05-05 00:55 10.47553 -74.37350 11544 ft 351 kts 22°
2026-05-05 00:55 10.49816 -74.36443 10992 ft 348 kts 22°
2026-05-05 00:56 10.52062 -74.35543 10431 ft 346 kts 22°
2026-05-05 00:56 10.54279 -74.34654 10110 ft 336 kts 22°
2026-05-05 00:56 10.56406 -74.33800 9976 ft 321 kts 22°
2026-05-05 00:56 10.58413 -74.32992 9850 ft 308 kts 23°
2026-05-05 00:57 10.60395 -74.32189 9643 ft 299 kts 23°
2026-05-05 00:57 10.62312 -74.31413 9286 ft 295 kts 23°
2026-05-05 00:57 10.64212 -74.30648 8833 ft 291 kts 23°
2026-05-05 00:57 10.66088 -74.29895 8134 ft 291 kts 23°
2026-05-05 00:58 10.67951 -74.29143 7496 ft 286 kts 23°
2026-05-05 00:58 10.69795 -74.28399 6876 ft 286 kts 23°
2026-05-05 00:58 10.71631 -74.27657 6462 ft 282 kts 23°
2026-05-05 00:58 10.73448 -74.26924 6048 ft 280 kts 23°
2026-05-05 00:59 10.75254 -74.26199 5615 ft 278 kts 23°
2026-05-05 00:59 10.77045 -74.25483 5251 ft 273 kts 23°
2026-05-05 00:59 10.78769 -74.24791 5131 ft 260 kts 23°
2026-05-05 00:59 10.80407 -74.24135 5014 ft 246 kts 23°
2026-05-05 01:00 10.81925 -74.23525 5007 ft 229 kts 23°
2026-05-05 01:00 10.83392 -74.22934 4712 ft 227 kts 23°
2026-05-05 01:00 10.84887 -74.22513 4528 ft 220 kts
2026-05-05 01:00 10.86413 -74.22500 4247 ft 219 kts
2026-05-05 01:01 10.87924 -74.22534 4004 ft 215 kts
2026-05-05 01:01 10.89409 -74.22567 3779 ft 211 kts
2026-05-05 01:01 10.90863 -74.22598 3552 ft 207 kts
2026-05-05 01:01 10.92289 -74.22627 3354 ft 204 kts
2026-05-05 01:02 10.93695 -74.22658 3153 ft 199 kts
2026-05-05 01:02 10.95049 -74.22690 2938 ft 190 kts
2026-05-05 01:02 10.96344 -74.22718 2732 ft 182 kts
2026-05-05 01:02 10.97589 -74.22743 2542 ft 174 kts
2026-05-05 01:03 10.98743 -74.22769 2369 ft 157 kts
2026-05-05 01:03 10.99776 -74.22793 2224 ft 143 kts
2026-05-05 01:03 11.00750 -74.22812 2079 ft 138 kts
2026-05-05 01:03 11.01699 -74.22831 1920 ft 135 kts
2026-05-05 01:04 11.02636 -74.22851 1733 ft 133 kts
2026-05-05 01:04 11.04486 -74.22894 1369 ft 133 kts
2026-05-05 01:04 11.05408 -74.22916 1191 ft 132 kts 359°
2026-05-05 01:05 11.06327 -74.22937 1013 ft 132 kts 359°
2026-05-05 01:05 11.07247 -74.22957 832 ft 132 kts 359°
2026-05-05 01:05 11.08165 -74.22977 654 ft 132 kts 359°
2026-05-05 01:05 11.09081 -74.22993 483 ft 131 kts
2026-05-05 01:06 11.09995 -74.23008 302 ft 131 kts 359°
2026-05-05 01:06 11.10908 -74.23036 116 ft 132 kts 359°
2026-05-05 01:06 11.11783 -74.23058 34 ft 106 kts 359°
2026-05-05 01:06 11.12251 -74.23069 37 ft 46 kts 359°
2026-05-05 01:07 11.12533 -74.23075 37 ft 34 kts 358°
2026-05-05 01:07 11.12656 -74.23082 36 ft 11 kts 345°
2026-05-05 01:07 11.12708 -74.23096 37 ft 5 kts 27°
2026-05-05 01:07 11.12698 -74.23083 35 ft 7 kts 158°
2026-05-05 01:08 11.12590 -74.23076 36 ft 20 kts 179°
2026-05-05 01:08 11.12444 -74.23074 38 ft 22 kts 179°
2026-05-05 01:08 11.12280 -74.23070 37 ft 25 kts 178°
2026-05-05 01:08 11.12096 -74.23066 35 ft 27 kts 178°
2026-05-05 01:09 11.11927 -74.23062 35 ft 23 kts 179°
2026-05-05 01:09 11.11780 -74.23059 34 ft 11 kts 179°
2026-05-05 01:09 11.11745 -74.23093 35 ft 6 kts 261°
2026-05-05 01:09 11.11745 -74.23134 37 ft 8 kts 270°
2026-05-05 01:10 11.11770 -74.23172 39 ft 6 kts 337°
2026-05-05 01:10 11.11779 -74.23206 39 ft 2 kts 267°
2026-05-05 01:10 11.11778 -74.23213 39 ft 0 kts 267°
2026-05-05 01:10 11.11778 -74.23214 39 ft 0 kts 269°